Weather History for Olean, NY

Change the Weather History Date:

Monday, November 25, 2013

  Actual Average (KBFD) Record (KBFD)
Temperature  
Mean Temperature 20 °F 33 °F  
Max Temperature 28 °F 41 °F 61 °F (2006)
Min Temperature 12 °F 26 °F 8 °F (2005)
Degree Days  
Heating Degree Days 45 27  
Month to date heating degree days 562  
Since 1 July heating degree days 1555  
Cooling Degree Days 0 0  
Month to date cooling degree days 0  
Year to date cooling degree days 193  
Moisture  
Dew Point 10 °F    
Average Humidity 66    
Maximum Humidity 93    
Minimum Humidity 34    
Precipitation  
Precipitation 0.00 in 0.13 in 1.33 in (2001)
Month to date precipitation 3.10  
Year to date precipitation 40.40  
Sea Level Pressure  
Sea Level Pressure 30.17 in    
Wind  
Wind Speed 6 mph (SW)    
Max Wind Speed 14 mph    
Max Gust Speed 24 mph    
Visibility 9 miles    
Events Snow    
T = Trace of Precipitation, MM = Missing Value Source: NWS Daily Summary

Daily Weather History Graph

Daily Weather History Graph

Search for Another Location

Airport:

Trip Planner

Search our weather history database for the weather conditions in past years. The results will help you decide how hot, cold, wet, or windy it might be!

Date:

Astronomy

Nov. 25, 2013 Rise Set
Actual Time 7:16 AM EST 4:44 PM EST
Civil Twilight 6:45 AM EST 5:15 PM EST
Nautical Twilight 6:10 AM EST 5:50 PM EST
Astronomical Twilight 5:37 AM EST 6:23 PM EST
Moon No Moon Rise 12:28 PM EST (11/25)
Length of Visible Light 10h 30m
Length of Day
9h 28m
Waning Gibbous, 51% of the Moon is Illuminated
Nov 25
Waning Gibbous
Nov 25
Last Quarter
Dec 2
New
Dec 9
First Quarter
Dec 17
Full

Hourly Weather History & Observations

Time (EST) Temp. Windchill Dew Point Humidity Pressure Visibility Wind Dir Wind Speed Gust Speed Precip Events Conditions
12:15 AM 14.0 °F - 12.2 °F 93% 30.27 in 1.8 mi Calm Calm - N/A Snow Light Snow
12:35 AM 14.0 °F - 12.2 °F 93% 30.27 in 2.5 mi Calm Calm - N/A Snow Light Snow
12:55 AM 14.0 °F - 12.2 °F 93% 30.26 in 7.0 mi Calm Calm - N/A Snow Light Snow
1:15 AM 14.0 °F 8.2 °F 12.2 °F 93% 30.26 in 10.0 mi WSW 3.5 mph - N/A Snow Light Snow
1:35 AM 14.0 °F - 12.2 °F 93% 30.26 in 10.0 mi Calm Calm - N/A   Mostly Cloudy
1:55 AM 14.0 °F 6.5 °F 12.2 °F 93% 30.27 in 10.0 mi WSW 4.6 mph - N/A Snow Light Snow
2:15 AM 12.2 °F 1.7 °F 10.4 °F 92% 30.27 in 10.0 mi WSW 6.9 mph - N/A Snow Light Snow
2:35 AM 14.0 °F 5.1 °F 12.2 °F 93% 30.28 in 10.0 mi WSW 5.8 mph - N/A Snow Light Snow
2:55 AM 14.0 °F 6.5 °F 12.2 °F 93% 30.28 in 10.0 mi WSW 4.6 mph - N/A Snow Light Snow
3:15 AM 12.2 °F 4.3 °F 10.4 °F 92% 30.27 in 7.0 mi SW 4.6 mph - N/A Snow Light Snow
3:35 AM 12.2 °F 6.1 °F 10.4 °F 92% 30.27 in 7.0 mi SW 3.5 mph - N/A Snow Light Snow
3:55 AM 12.2 °F 4.3 °F 10.4 °F 92% 30.27 in 10.0 mi SW 4.6 mph - N/A Snow Light Snow
4:15 AM 12.2 °F 6.1 °F 10.4 °F 92% 30.27 in 10.0 mi SW 3.5 mph - N/A Snow Light Snow
4:35 AM 12.2 °F 2.9 °F 10.4 °F 92% 30.27 in 7.0 mi SW 5.8 mph - N/A Snow Light Snow
4:55 AM 14.0 °F 5.1 °F 12.2 °F 93% 30.27 in 5.0 mi SW 5.8 mph - N/A Snow Light Snow
5:15 AM 14.0 °F 5.1 °F 12.2 °F 93% 30.27 in 5.0 mi SSW 5.8 mph - N/A Snow Light Snow
5:35 AM 14.0 °F 3.9 °F 12.2 °F 93% 30.27 in 7.0 mi SW 6.9 mph - N/A Snow Light Snow
5:55 AM 14.0 °F 3.9 °F 12.2 °F 93% 30.27 in 2.5 mi SSW 6.9 mph - N/A Snow Light Snow
6:15 AM 14.0 °F 3.9 °F 12.2 °F 93% 30.27 in 10.0 mi SSW 6.9 mph - N/A Snow Light Snow
6:35 AM 14.0 °F 3.9 °F 12.2 °F 93% 30.27 in 10.0 mi SW 6.9 mph - N/A Snow Light Snow
6:55 AM 14.0 °F 3.9 °F 12.2 °F 93% 30.27 in 10.0 mi SW 6.9 mph - N/A   Overcast
7:15 AM 14.0 °F 2.9 °F 12.2 °F 93% 30.27 in 10.0 mi SW 8.1 mph - N/A   Overcast
7:35 AM 14.0 °F 2.0 °F 12.2 °F 93% 30.27 in 10.0 mi SW 9.2 mph - N/A   Scattered Clouds
7:55 AM 14.0 °F 6.5 °F 12.2 °F 93% 30.27 in 10.0 mi WSW 4.6 mph - N/A   Clear
8:15 AM 14.0 °F 8.2 °F 12.2 °F 93% 30.27 in 10.0 mi SW 3.5 mph - N/A   Clear
8:35 AM 14.0 °F 2.9 °F 12.2 °F 93% 30.27 in 10.0 mi SW 8.1 mph - N/A   Clear
8:55 AM 15.8 °F 4.2 °F 12.2 °F 86% 30.26 in 7.0 mi SW 9.2 mph - N/A   Clear
9:15 AM 17.6 °F 5.0 °F 10.4 °F 73% 30.26 in 10.0 mi SW 11.5 mph 16.1 mph N/A Snow Light Snow
9:35 AM 17.6 °F 6.4 °F 10.4 °F 73% 30.25 in 10.0 mi SW 9.2 mph - N/A   Clear
9:55 AM 19.4 °F 9.5 °F 10.4 °F 68% 30.25 in 10.0 mi SW 8.1 mph - N/A   Clear
10:15 AM 19.4 °F 6.6 °F 10.4 °F 68% 30.23 in 10.0 mi SSW 12.7 mph 18.4 mph N/A   Clear
10:35 AM 19.4 °F 7.9 °F 8.6 °F 63% 30.22 in 10.0 mi SW 10.4 mph - N/A   Clear
10:55 AM 21.2 °F 10.1 °F 10.4 °F 63% 30.21 in 7.0 mi SW 10.4 mph 16.1 mph N/A   Clear
11:15 AM 21.2 °F 8.9 °F 8.6 °F 58% 30.20 in 10.0 mi SW 12.7 mph 17.3 mph N/A   Clear
11:35 AM 23.0 °F 11.1 °F 8.6 °F 54% 30.18 in 2.0 mi SW 12.7 mph 20.7 mph N/A Snow Light Snow
11:55 AM 24.8 °F 17.9 °F 8.6 °F 50% 30.18 in 10.0 mi SSW 5.8 mph 9.2 mph N/A   Clear
12:15 PM 26.6 °F 16.2 °F 8.6 °F 47% 30.17 in 10.0 mi SSW 11.5 mph 16.1 mph N/A   Clear
12:35 PM 26.6 °F 16.8 °F 5.0 °F 40% 30.16 in 10.0 mi SW 10.4 mph 19.6 mph N/A   Clear
12:55 PM 26.6 °F 15.2 °F 6.8 °F 43% 30.14 in 10.0 mi SW 13.8 mph 19.6 mph N/A   Clear
1:15 PM 26.6 °F 16.2 °F 6.8 °F 43% 30.13 in 10.0 mi SW 11.5 mph 18.4 mph N/A   Clear
1:35 PM 26.6 °F 18.2 °F 6.8 °F 43% 30.12 in 10.0 mi SW 8.1 mph 16.1 mph N/A   Clear
1:55 PM 28.4 °F 19.1 °F 8.6 °F 43% 30.11 in 10.0 mi South 10.4 mph 16.1 mph N/A   Scattered Clouds
2:15 PM 26.6 °F 16.2 °F 8.6 °F 47% 30.10 in 10.0 mi SSW 11.5 mph - N/A   Mostly Cloudy
2:35 PM 28.4 °F 19.7 °F 8.6 °F 43% 30.10 in 10.0 mi SSW 9.2 mph 17.3 mph N/A   Overcast
2:55 PM 28.4 °F 20.4 °F 10.4 °F 47% 30.10 in 10.0 mi SSW 8.1 mph 16.1 mph N/A   Overcast
3:15 PM 28.4 °F 19.1 °F 8.6 °F 43% 30.09 in 10.0 mi South 10.4 mph 16.1 mph N/A   Mostly Cloudy
3:35 PM 28.4 °F 19.7 °F 6.8 °F 40% 30.09 in 10.0 mi SSW 9.2 mph - N/A   Mostly Cloudy
3:55 PM 26.6 °F 16.8 °F 8.6 °F 47% 30.08 in 10.0 mi SSW 10.4 mph - N/A   Overcast
4:15 PM 26.6 °F 15.2 °F 6.8 °F 43% 30.09 in 10.0 mi SSW 13.8 mph - N/A   Overcast
4:35 PM 26.6 °F 16.8 °F 8.6 °F 47% 30.08 in 10.0 mi SSW 10.4 mph 16.1 mph N/A   Overcast
4:55 PM 26.6 °F 15.2 °F 5.0 °F 40% 30.09 in 10.0 mi SW 13.8 mph 20.7 mph N/A   Overcast
5:15 PM 26.6 °F 16.2 °F 5.0 °F 40% 30.09 in 10.0 mi SW 11.5 mph 16.1 mph N/A   Overcast
5:35 PM 26.6 °F 18.2 °F 5.0 °F 40% 30.08 in 10.0 mi SW 8.1 mph - N/A   Overcast
5:55 PM 26.6 °F 16.8 °F 5.0 °F 40% 30.09 in 10.0 mi SSW 10.4 mph - N/A   Overcast
6:15 PM 28.4 °F 19.7 °F 5.0 °F 37% 30.08 in 10.0 mi SW 9.2 mph - N/A   Overcast
6:35 PM 28.4 °F 19.7 °F 5.0 °F 37% 30.08 in 10.0 mi SSW 9.2 mph - N/A   Overcast
6:55 PM 28.4 °F 18.5 °F 3.2 °F 34% 30.08 in 10.0 mi SW 11.5 mph 17.3 mph N/A   Overcast
7:15 PM 28.4 °F 20.4 °F 5.0 °F 37% 30.08 in 10.0 mi SW 8.1 mph 19.6 mph N/A   Overcast
7:35 PM 28.4 °F 19.7 °F 5.0 °F 37% 30.07 in 10.0 mi SW 9.2 mph 19.6 mph N/A   Overcast
7:55 PM 28.4 °F 20.4 °F 5.0 °F 37% 30.07 in 10.0 mi SW 8.1 mph 17.3 mph N/A   Overcast
8:15 PM 28.4 °F 19.1 °F 6.8 °F 40% 30.05 in 10.0 mi SW 10.4 mph 17.3 mph N/A   Overcast
8:35 PM 28.4 °F 19.7 °F 10.4 °F 47% 30.06 in 10.0 mi SW 9.2 mph 24.2 mph N/A   Overcast
8:55 PM 28.4 °F 21.2 °F 10.4 °F 47% 30.06 in 10.0 mi WSW 6.9 mph 18.4 mph N/A   Overcast
9:15 PM 28.4 °F 19.7 °F 10.4 °F 47% 30.06 in 10.0 mi SW 9.2 mph 21.9 mph N/A   Overcast
9:35 PM 28.4 °F 18.0 °F 12.2 °F 51% 30.06 in 10.0 mi SW 12.7 mph 19.6 mph N/A   Overcast
9:55 PM 26.6 °F 16.2 °F 14.0 °F 59% 30.06 in 10.0 mi WSW 11.5 mph 19.6 mph N/A Snow Light Snow
10:15 PM 26.6 °F 21.2 °F 14.0 °F 59% 30.07 in 10.0 mi SW 4.6 mph - N/A   Overcast
10:35 PM 28.4 °F 21.2 °F 14.0 °F 55% 30.07 in 10.0 mi SW 6.9 mph - N/A Snow Light Snow
10:55 PM 26.6 °F 17.5 °F 17.6 °F 69% 30.08 in 10.0 mi SW 9.2 mph 19.6 mph N/A Snow Light Snow
11:15 PM 26.6 °F 16.2 °F 19.4 °F 74% 30.08 in 7.0 mi SW 11.5 mph 18.4 mph N/A Snow Light Snow
11:35 PM 26.6 °F 16.2 °F 21.2 °F 80% 30.08 in 5.0 mi SW 11.5 mph 18.4 mph N/A Snow Light Snow
11:55 PM 26.6 °F 19.1 °F 21.2 °F 80% 30.08 in 5.0 mi SW 6.9 mph - N/A   Overcast